x

Saxon Harbor, Wi (sxhw3) Weather Station

1:40pm - Sun 4th Dec 2016 All times are CST. -6 hours from GMT.

  • Wind
    5mph, 11mph gusts
  • Air Temp 33°f
  • Sea Pressure 1010.2mb
  • Saxon Harbor, Wi
  • Saxon Harbor, Wi

More Historic Weather Station data

Upgrade to MSW Pro to gain access to the past 30 days of data for over 8000 Wavebouys and Weather Stations around the globe.

Join Pro

Comparision Forecast

View Surf forecast
   
Sun 12/04 1:40pm 5 11 mph 1010.2mb 33f
1:30pm 5 11 mph 1010.2mb 33f
1:20pm 7 13 mph 1010.5mb 34f
1:10pm 6 10 mph 1010.5mb 34f
1:00pm 6 10 mph 1010.8mb 34f
12:40pm 6 13 mph 1011.2mb 34f
12:30pm 7 11 mph 1011.5mb 34f
12:20pm 6 11 mph 1011.5mb 34f
12:10pm 6 13 mph 1011.9mb 34f
12:00pm 6 10 mph 1012.2mb 34f
11:40am 2 11 mph 1012.5mb 33f
11:30am 5 9 mph 1012.5mb 33f
11:20am 5 10 mph 1012.9mb 33f
11:10am 5 9 mph 1013.2mb 33f
11:00am 3 8 mph 1013.5mb 33f
10:40am 7 11 mph 1013.9mb 33f
10:30am 5 9 mph 1014.2mb 33f
10:20am 3 8 mph 1014.2mb 33f
10:10am 5 8 mph 1014.2mb 33f
10:00am 5 8 mph 1014.6mb 32f
9:40am 5 8 mph 1014.9mb 32f
9:30am 2 6 mph 1014.9mb 32f
9:20am 3 8 mph 1014.9mb 31f
9:10am 3 8 mph 1015.2mb 31f
9:00am 5 9 mph 1015.2mb 31f
8:40am 3 9 mph 1015.6mb 31f
8:30am 3 6 mph 1015.9mb 31f
8:20am 3 7 mph 1015.9mb 31f
8:10am 5 7 mph 1016.3mb 31f
8:00am 3 6 mph 1016.3mb 31f
7:40am 3 6 mph 1016.6mb 30f
7:30am 2 6 mph 1016.6mb 30f
7:20am 2 8 mph 1016.9mb 30f
7:10am 2 7 mph 1016.9mb 30f
7:00am 3 7 mph 1017.3mb 30f
6:40am 3 8 mph 1017.6mb 30f
6:30am 3 10 mph 1017.3mb 30f
6:20am 5 8 mph 1017.6mb 30f
6:10am 8 11 mph 1017.6mb 30f
6:00am 5 13 mph 1017.9mb 30f
5:40am 6 10 mph 1017.9mb 30f
5:30am 5 11 mph 1017.9mb 30f
5:20am 5 9 mph 1017.9mb 30f
5:10am 3 9 mph 1018.3mb 30f
5:00am 5 10 mph 1018.6mb 30f
4:40am 5 8 mph 1019mb 30f
4:30am 3 8 mph 1019.3mb 30f
4:20am 3 6 mph 1019.3mb 29f
4:10am 3 8 mph 1019.3mb 29f
4:00am 2 7 mph 1019.6mb 29f
3:40am 5 7 mph 1019.6mb 29f
3:30am 2 6 mph 1020mb 29f
3:20am 2 5 mph 1020mb 29f
3:10am 2 6 mph 1020.3mb 29f
3:00am 3 7 mph 1020.3mb 29f
2:40am 3 5 mph 1020.7mb 29f
2:30am 3 6 mph 1020.7mb 29f
2:20am 3 5 mph 1020.7mb 29f
2:10am  -  3 mph 1020.7mb 29f
2:00am 2 5 mph 1021mb 29f
1:40am 1 3 mph 1021mb 30f
1:30am 3 6 mph 1021.3mb 30f
1:20am 2 8 mph 1021.3mb 30f
1:10am 2 3 mph 1021.3mb 30f
1:00am 1 3 mph 1021.3mb 30f
12:40am 2 5 mph 1021.3mb 31f
12:30am 2 6 mph 1021.3mb 31f
12:20am 2 5 mph 1021.3mb 31f
12:10am 3 7 mph 1021.7mb 31f
12:00am 2 5 mph 1021.7mb 31f
Sat 12/03 11:40pm 1 6 mph 1021.7mb 31f
11:30pm 3 6 mph 1021.7mb 31f
11:20pm 5 8 mph 1022mb 31f
11:10pm 2 6 mph 1022mb 31f
11:00pm 3 5 mph 1022mb 31f
10:40pm 1 3 mph 1022mb 31f
10:30pm 2 5 mph 1022mb 31f
10:20pm 2 5 mph 1022mb 31f
10:10pm 1 5 mph 1022mb 31f
10:00pm 2 5 mph 1022mb 31f
9:40pm 2 3 mph 1022.4mb 31f
9:30pm 1 5 mph 1022.4mb 31f
9:20pm 2 5 mph 1022.7mb 31f
9:10pm 2 6 mph 1022.7mb 31f
9:00pm 5 7 mph 1023mb 31f
8:40pm 5 6 mph 1023mb 31f
8:30pm 2 6 mph 1023mb 31f
8:20pm 3 7 mph 1023mb 32f
8:10pm 2 5 mph 1023mb 32f
8:00pm 3 6 mph 1023.4mb 32f
7:40pm 3 6 mph 1023.4mb 32f
7:30pm 3 7 mph 1023.4mb 32f
7:20pm 2 6 mph 1023.7mb 32f
7:10pm 3 6 mph 1023.7mb 32f
7:00pm 1 3 mph 1023.7mb 32f
6:40pm 2 5 mph 1023.7mb 32f
6:30pm 2 5 mph 1023.7mb 32f
6:20pm 5 6 mph 1023.7mb 32f
6:10pm 2 7 mph 1024mb 32f
6:00pm 2 5 mph 1024mb 32f
5:40pm 5 6 mph 1024mb 33f
5:30pm 5 7 mph 1024mb 33f
5:20pm 3 6 mph 1023.7mb 33f
5:10pm 6 7 mph 1024mb 32f
5:00pm 2 6 mph 1024mb 32f
4:40pm 1 3 mph 1024mb 32f
4:30pm 2 5 mph 1024mb 32f
4:20pm 2 5 mph 1024mb 32f
4:10pm 2 5 mph 1024mb 32f
4:00pm  -  6 mph 1024mb 33f
3:40pm 3 7 mph 1024mb 33f
3:30pm 3 6 mph 1024mb 33f
3:20pm 3 6 mph 1023.7mb 33f
3:10pm 2 5 mph 1024mb 33f
3:00pm  -  6 mph 1024mb 33f
2:40pm 3 5 mph 1024mb 33f
2:30pm 2 5 mph 1024mb 33f
2:20pm 3 7 mph 1024mb 33f
2:10pm 7 8 mph 1024mb 33f
2:00pm 5 7 mph 1024.4mb 33f
1:50pm 1 5 mph 1024.4mb 33f
1:40pm 3 8 mph 1024.4mb 33f
1:30pm 5 7 mph 1024.4mb 33f
1:20pm 2 6 mph 1024.4mb 33f
1:10pm 5 8 mph 1024.4mb 33f
1:00pm 3 6 mph 1024.4mb 33f
12:50pm 3 7 mph 1024.4mb 33f
12:40pm 6 9 mph 1024mb 33f
12:30pm 6 8 mph 1024mb 33f
12:20pm 2 3 mph 1024.4mb 33f
12:10pm 2 3 mph 1024.4mb 33f
12:00pm 3 6 mph 1024.4mb 32f
11:50am 5 9 mph 1024.4mb 32f
11:40am 5 8 mph 1024.4mb 32f
11:30am 6 8 mph 1024.4mb 32f
11:20am 6 8 mph 1024.4mb 32f
11:10am 6 9 mph 1024.7mb 32f
11:00am 6 7 mph 1024.7mb 32f
10:50am 3 6 mph 1025.1mb 32f
10:40am 3 7 mph 1025.1mb 31f
10:30am 3 6 mph 1025.1mb 31f
10:20am 3 7 mph 1025.1mb 31f
10:10am 3 6 mph 1025.1mb 31f
10:00am 2 5 mph 1025.4mb 31f
9:50am 3 6 mph 1025.4mb 31f
9:40am 3 6 mph 1025.4mb 31f
9:30am 2 5 mph 1025.4mb 31f
9:20am 3 6 mph 1025.4mb 31f
9:10am 3 5 mph 1025.4mb 31f
9:00am 2 5 mph 1025.4mb 31f
8:50am 3 6 mph 1025.1mb 31f
8:40am 5 7 mph 1025.1mb 31f
8:30am 6 7 mph 1025.1mb 31f
8:20am 6 8 mph 1025.4mb 31f
8:10am 6 8 mph 1025.4mb 31f
8:00am 6 8 mph 1025.4mb 31f
7:50am 6 8 mph 1025.4mb 30f
7:40am 6 8 mph 1025.4mb 31f
7:30am 7 9 mph 1025.1mb 31f
7:20am 7 9 mph 1025.1mb 31f
7:10am 7 9 mph 1025.1mb 31f
7:00am 7 10 mph 1025.1mb 31f
6:50am 8 10 mph 1025.1mb 31f
6:40am 7 10 mph 1025.1mb 31f
6:30am 7 10 mph 1025.1mb 31f
6:20am 6 9 mph 1025.1mb 31f
6:10am 7 9 mph 1024.7mb 31f
6:00am 8 11 mph 1024.7mb 31f
5:50am 7 9 mph 1024.7mb 31f
5:40am 6 9 mph 1024.7mb 31f
5:30am 7 9 mph 1024.7mb 31f
5:20am 6 11 mph 1024.7mb 30f
5:10am 7 8 mph 1024.4mb 30f
5:00am 6 9 mph 1024.4mb 30f
4:50am 6 9 mph 1024.4mb 30f
4:40am 7 9 mph 1024.4mb 30f
4:30am 6 10 mph 1024.4mb 30f
4:20am 7 9 mph 1024.4mb 30f
4:10am 8 10 mph 1024.4mb 30f
4:00am 8 10 mph 1024.7mb 30f
3:50am 6 9 mph 1024.7mb 30f
3:40am 6 9 mph 1024.7mb 30f
3:30am 7 10 mph 1024.7mb 30f
3:20am 7 11 mph 1024.7mb 30f
3:10am 8 10 mph 1024.7mb 30f
3:00am 7 9 mph 1025.1mb 30f
2:50am 7 10 mph 1025.1mb 30f
2:40am 6 10 mph 1025.1mb 30f
2:30am 7 10 mph 1025.1mb 30f
2:20am 6 8 mph 1025.1mb 30f
2:10am 6 10 mph 1025.1mb 30f
2:00am 7 11 mph 1025.1mb 31f
1:50am 6 10 mph 1025.1mb 31f
1:40am 7 9 mph 1025.1mb 31f
1:30am 7 9 mph 1024.7mb 31f
1:20am 7 10 mph 1024.7mb 31f
1:10am 8 10 mph 1024.7mb 31f
1:00am 7 11 mph 1024.7mb 31f
12:50am 7 11 mph 1024.7mb 30f
12:40am 7 11 mph 1024.7mb 30f
12:30am 7 10 mph 1024.7mb 30f
12:20am 7 9 mph 1024.7mb 30f
12:10am 6 13 mph 1024.7mb 30f
12:00am 7 11 mph 1024.7mb 30f
Fri 12/02 11:50pm 8 9 mph 1024.7mb 30f
11:40pm 6 9 mph 1024.7mb 30f
11:30pm 7 11 mph 1024.7mb 30f
11:20pm 8 11 mph 1024.7mb 30f
11:10pm 7 10 mph 1024.7mb 30f
11:00pm 8 13 mph 1024.7mb 30f
10:50pm 7 9 mph 1024.7mb 30f
10:40pm 8 10 mph 1024.4mb 30f
10:30pm 7 10 mph 1024.4mb 30f
10:20pm 6 9 mph 1024.4mb 30f
10:10pm 6 9 mph 1024.4mb 31f
10:00pm 7 9 mph 1024.4mb 31f
9:50pm 6 10 mph 1024.4mb 31f
9:40pm 6 9 mph 1024.4mb 31f
9:30pm 7 11 mph 1024.4mb 31f
9:20pm 8 10 mph 1024.4mb 31f
9:10pm 6 9 mph 1024.4mb 31f
9:00pm 6 9 mph 1024.4mb 31f
8:50pm 9 10 mph 1024.4mb 31f
8:40pm 7 11 mph 1024.4mb 31f
8:30pm 7 11 mph 1024.7mb 31f
8:20pm 7 10 mph 1024.7mb 31f
8:10pm 6 10 mph 1024.7mb 31f
8:00pm 7 10 mph 1024.7mb 31f
7:50pm 7 8 mph 1024.7mb 31f
7:40pm 6 9 mph 1024.7mb 31f
7:30pm 6 9 mph 1024.4mb 31f
7:20pm 6 9 mph 1024.4mb 31f
7:10pm 3 8 mph 1024.4mb 31f
7:00pm 6 7 mph 1024.4mb 31f
6:50pm 3 7 mph 1024.4mb 31f
6:40pm 3 7 mph 1024.4mb 31f
6:30pm 3 7 mph 1024mb 31f
6:20pm 5 7 mph 1024mb 31f
6:10pm 5 7 mph 1024mb 31f
6:00pm 3 7 mph 1024mb 32f
5:50pm 5 6 mph 1023.7mb 32f
5:40pm 5 7 mph 1023.7mb 32f
5:30pm 5 8 mph 1023.7mb 32f
5:20pm 6 8 mph 1023.7mb 32f
5:10pm 5 11 mph 1023.7mb 32f
5:00pm 7 11 mph 1023.7mb 32f
4:50pm 2 7 mph 1023.7mb 32f
4:40pm 5
mph
1023.4mb 32f
4:30pm 3 6 mph 1023.7mb 32f
4:20pm 2 7 mph 1023.7mb 32f
4:10pm 5 8 mph 1023.7mb 32f
4:00pm 5 7 mph 1023.7mb 32f
3:50pm 6 7 mph 1023.4mb 32f
3:40pm 5 6 mph 1023.4mb 32f
3:30pm 5 8 mph 1023.4mb 32f
3:20pm 3 7 mph 1023mb 32f
3:10pm 5 9 mph 1023mb 33f
3:00pm 5 7 mph 1023mb 33f
2:50pm 5 8 mph 1023mb 33f
2:40pm 5 9 mph 1022.7mb 32f
2:30pm 6 8 mph 1022.7mb 33f
2:20pm 7 9 mph 1022.7mb 33f
2:10pm 5 6 mph 1022.7mb 33f
2:00pm 5 7 mph 1022.7mb 33f
1:50pm 5 8 mph 1022.4mb 32f
1:40pm 6 9 mph 1022.4mb 32f
1:30pm 5 8 mph 1022.4mb 32f
1:20pm 8 9 mph 1022.4mb 32f
1:10pm 5 8 mph 1022mb 32f
1:00pm 6 9 mph 1022mb 32f
12:50pm 7 9 mph 1022mb 32f
12:40pm 6 8 mph 1022mb 32f
12:30pm 5 9 mph 1022mb 32f
12:20pm 6 9 mph 1022mb 32f
12:10pm 5 8 mph 1022mb 32f
12:00pm 7 10 mph 1021.7mb 32f
11:50am 5 9 mph 1021.7mb 31f
11:40am 6 8 mph 1021.7mb 32f
11:30am 3 9 mph 1021.7mb 31f
11:20am 6 11 mph 1021.7mb 31f
11:10am 6 10 mph 1021.7mb 31f
11:00am 6 10 mph 1021.7mb 31f
10:50am 7 11 mph 1021.7mb 31f
10:40am 5 10 mph 1021.7mb 31f
10:30am 7 10 mph 1021.7mb 31f
10:20am 8 11 mph 1021.7mb 31f
10:10am 5 8 mph 1021.3mb 31f
10:00am 6 9 mph 1021.3mb 31f
9:50am 5 9 mph 1021.3mb 31f
9:40am 5 10 mph 1021.3mb 31f
9:30am 5 9 mph 1021mb 31f
9:20am 8 10 mph 1021mb 30f
9:10am 6 10 mph 1020.7mb 30f
9:00am 7 11 mph 1020.7mb 30f
8:50am 3 10 mph 1020.7mb 30f
8:40am 5 8 mph 1020.3mb 31f
8:30am 6 10 mph 1020.3mb 30f
8:20am 6 8 mph 1020.3mb 30f
8:10am 5 9 mph 1020.3mb 30f
8:00am 7 11 mph 1020mb 30f
7:50am 6 8 mph 1020mb 30f
7:40am 3 7 mph 1020mb 30f
7:30am 5 8 mph 1020mb 30f
7:20am 6 8 mph 1019.6mb 30f
7:10am 5 8 mph 1019.6mb 31f
7:00am 5 8 mph 1019.6mb 31f
6:50am 5 9 mph 1019.3mb 31f
6:40am 3 9 mph 1019.3mb 31f
6:30am 6 10 mph 1019mb 31f
6:20am 8 13 mph 1019mb 31f
6:10am 6 10 mph 1019mb 31f
6:00am 6 10 mph 1019mb 31f
5:50am 6 10 mph 1019mb 31f
5:40am 6 10 mph 1018.6mb 31f
5:30am 6 9 mph 1018.6mb 31f
5:20am 7 9 mph 1018.6mb 31f
5:10am 5 10 mph 1018.3mb 31f
5:00am 5 9 mph 1018.3mb 31f
4:50am 3 8 mph 1017.9mb 31f
4:40am 3 7 mph 1017.9mb 31f
4:30am 3 8 mph 1017.9mb 32f
4:20am 8 14 mph 1017.9mb 33f
4:10am 8 13 mph 1017.6mb 33f
4:00am 6 14 mph 1017.6mb 32f
3:50am 10 16 mph 1017.6mb 33f
3:40am 8 15 mph 1017.3mb 32f
3:30am 10 16 mph 1017.3mb 33f
3:20am 5 13 mph 1017.3mb 32f
3:10am 11 14 mph 1017.3mb 33f
3:00am 8 13 mph 1016.9mb 33f
2:50am 9 14 mph 1016.9mb 33f
2:40am 15 18 mph 1016.9mb 33f
2:30am 10 14 mph 1016.6mb 33f
2:20am 11 16 mph 1016.6mb 33f
2:10am 15 17 mph 1016.3mb 33f
2:00am 14 16 mph 1016.3mb 33f
1:50am 10 16 mph 1016.3mb 33f
1:40am 11 17 mph 1015.9mb 33f
1:30am 10 16 mph 1015.9mb 33f
1:20am 10 16 mph 1015.9mb 33f
1:10am 11 15 mph 1015.9mb 33f
1:00am 13 17 mph 1015.6mb 33f
12:50am 9 16 mph 1015.6mb 32f
12:40am 10 18 mph 1015.6mb 33f
12:30am 11 16 mph 1015.2mb 33f
12:20am 13 17 mph 1015.2mb 33f
12:10am 15 22 mph 1015.2mb 33f
12:00am 10 16 mph 1014.9mb 33f
Thu 12/01 11:50pm 11 17 mph 1014.9mb 33f
11:40pm 14 20 mph 1014.9mb 33f
11:30pm 15 20 mph 1014.9mb 33f
11:20pm 15 18 mph 1014.6mb 33f
11:10pm 15 17 mph 1014.9mb 33f
11:00pm 15 18 mph 1014.6mb 33f
10:50pm 14 21 mph 1014.6mb 33f
10:40pm 15 17 mph 1014.2mb 33f
10:30pm 15 17 mph 1014.2mb 33f
10:20pm 16 20 mph 1014.2mb 33f
10:10pm 15 17 mph 1013.9mb 33f
10:00pm 13 21 mph 1013.9mb 33f
9:50pm 14 20 mph 1013.9mb 33f
9:40pm 7 9 mph 1013.9mb 31f
9:30pm 6 10 mph 1013.9mb 31f
9:20pm 6 11 mph 1013.9mb 31f
9:10pm 5 10 mph 1013.9mb 31f
9:00pm 7 13 mph 1013.9mb 31f
8:50pm 8 11 mph 1013.9mb 31f
8:40pm 9 14 mph 1013.9mb 31f
8:30pm 14 21 mph 1013.5mb 33f
8:20pm 16 18 mph 1013.5mb 33f
8:10pm 15 21 mph 1013.5mb 33f
8:00pm 16 18 mph 1013.5mb 33f
7:50pm 15 20 mph 1013.2mb 33f
7:40pm 16 17 mph 1013.2mb 33f
7:30pm 15 20 mph 1013.2mb 33f
7:20pm 15 18 mph 1013.2mb 32f
7:10pm 8 18 mph 1013.2mb 32f
7:00pm 11 18 mph 1012.9mb 33f
6:50pm 16 21 mph 1012.9mb 33f
6:40pm 15 21 mph 1012.5mb 33f
6:30pm 15 21 mph 1012.5mb 32f
6:20pm 16 17 mph 1012.5mb 32f
6:10pm 13 21 mph 1012.5mb 33f
6:00pm 13 18 mph 1012.2mb 33f
5:50pm 13 18 mph 1012.5mb 33f
5:40pm 16 18 mph 1012.5mb 33f
5:30pm 13 21 mph 1012.5mb 33f
5:20pm 16 21 mph 1012.2mb 33f
5:10pm 10 17 mph 1012.2mb 32f
5:00pm 16 21 mph 1012.2mb 32f
4:50pm 14 23 mph 1011.9mb 33f
4:40pm 17 24 mph 1011.9mb 32f
4:30pm 16 20 mph 1011.5mb 32f
4:20pm 17 22 mph 1011.5mb 32f
4:10pm 16 20 mph 1011.5mb 33f
4:00pm 15 22 mph 1011.5mb 33f
3:50pm 18 21 mph 1011.2mb 33f
3:40pm 17 22 mph 1011.2mb 33f
3:30pm 15 21 mph 1011.2mb 33f
3:20pm 16 18 mph 1010.8mb 33f
3:10pm 14 18 mph 1010.8mb 33f
3:00pm 17 21 mph 1010.8mb 32f
2:50pm 16 21 mph 1010.5mb 32f
2:40pm 18 22 mph 1010.2mb 32f
2:30pm 16 18 mph 1010.2mb 32f
2:20pm 16 22 mph 1009.8mb 33f
2:10pm 15 18 mph 1009.8mb 33f
2:00pm 14 18 mph 1009.8mb 34f
1:50pm 16 18 mph 1009.5mb 34f
1:40pm 14 16 mph 1009.5mb 34f
1:30pm 14 17 mph 1009.5mb 34f
1:20pm 15 17 mph 1009.1mb 35f
1:10pm 13 17 mph 1009.1mb 35f
1:00pm 13 18 mph 1009.1mb 34f
12:50pm 14 22 mph 1009.1mb 34f
11:50am 15 17 mph 1008.8mb 34f
11:40am 14 21 mph 1008.8mb 33f
11:30am 17 20 mph 1008.8mb 34f
11:20am 13 18 mph 1008.8mb 34f
11:10am 15 17 mph 1008.5mb 34f
11:00am 15 18 mph 1008.5mb 34f
10:50am 17 20 mph 1008.5mb 33f
10:40am 16 18 mph 1008.5mb 34f
10:30am 14 17 mph 1008.5mb 34f
10:20am 15 21 mph 1008.5mb 34f
10:10am 17 21 mph 1008.5mb 34f
10:00am 15 18 mph 1008.1mb 34f
9:50am 15 18 mph 1008.1mb 35f
9:40am 15 18 mph 1007.8mb 35f
9:30am 16 20 mph 1007.8mb 34f
9:20am 14 17 mph 1007.5mb 34f
9:10am 14 20 mph 1007.5mb 34f
9:00am 15 17 mph 1007.5mb 35f
8:50am 16 18 mph 1007.1mb 34f
8:40am 18 21 mph 1007.1mb 34f
8:30am 17 18 mph 1007.1mb 34f
8:20am 15 20 mph 1007.1mb 34f
8:10am 16 20 mph 1007.1mb 35f
8:00am 14 20 mph 1006.8mb 35f
7:50am 16 18 mph 1006.4mb 35f
7:40am 15 20 mph 1006.4mb 35f
7:30am 15 21 mph 1006.1mb 35f
7:20am 16 21 mph 1006.1mb 34f
7:10am 18 22 mph 1006.1mb 34f
7:00am 18 21 mph 1006.1mb 35f
6:50am 17 22 mph 1005.8mb 35f
6:40am 16 20 mph 1005.8mb 35f
6:30am 17 21 mph 1005.8mb 36f
6:20am 17 21 mph 1005.4mb 36f
6:10am 14 20 mph 1005.4mb 36f
6:00am 15 18 mph 1005.1mb 36f
5:50am 14 16 mph 1005.1mb 36f
5:40am 14 20 mph 1005.1mb 36f
5:30am 16 18 mph 1004.7mb 36f
5:20am 16 18 mph 1004.7mb 37f
5:10am 16 20 mph 1004.4mb 37f
5:00am 15 21 mph 1004.4mb 37f
4:50am 15 17 mph 1004.1mb 37f
4:40am 15 18 mph 1004.1mb 37f
4:30am 16 20 mph 1004.1mb 37f
4:20am 16 20 mph 1003.7mb 38f
4:10am 16 20 mph 1003.7mb 38f
4:00am 17 20 mph 1003.4mb 38f
3:50am 16 20 mph 1003.4mb 38f
3:40am 15 18 mph 1003mb 38f
3:30am 15 17 mph 1003mb 38f
3:20am 15 17 mph 1003mb 38f
3:10am 15 18 mph 1003mb 38f
3:00am 15 18 mph 1003mb 39f
2:50am 14 18 mph 1003mb 39f
2:40am 16 18 mph 1002.7mb 39f
2:30am 15 18 mph 1002.7mb 40f
2:20am 17 20 mph 1002.7mb 40f
2:10am 15 17 mph 1002.7mb 40f
2:00am 16 17 mph 1002.4mb 40f
1:50am 15 16 mph 1002.4mb 40f
1:40am 15 17 mph 1002mb 40f
1:30am 11 15 mph 1002mb 40f
1:20am 11 14 mph 1002mb 40f
1:10am 10 13 mph 1002mb 39f
1:00am 11 13 mph 1001.7mb 39f
12:50am 10 11 mph 1001.7mb 40f
12:40am 7 11 mph 1001.7mb 39f
12:30am 10 11 mph 1001.7mb 39f
12:20am 10 13 mph 1001.4mb 39f
12:10am 11 13 mph 1001.4mb 39f
12:00am 10 14 mph 1001.4mb 39f
Wed 11/30 11:40pm 3 8 mph 1001.4mb 37f
11:30pm 6 9 mph 1001.4mb 37f
11:20pm 7 9 mph 1001mb 37f
11:10pm 6 7 mph 1001mb 36f
11:00pm 5 8 mph 1001mb 36f
10:50pm 6 8 mph 1001mb 36f
10:40pm 5 7 mph 1001mb 36f
10:30pm 6 9 mph 1001mb 36f
10:20pm 6 8 mph 1001mb 36f
10:10pm 5 7 mph 1001mb 36f
10:00pm 3 7 mph 1001mb 36f
9:50pm 2 6 mph 1001mb 36f
9:40pm 3 6 mph 1000.7mb 36f
9:30pm 5 6 mph 1000.7mb 36f
9:20pm 5 7 mph 1000.7mb 36f
9:10pm 5 6 mph 1000.7mb 36f
9:00pm 5 7 mph 1000.7mb 36f
8:50pm 5 7 mph 1000.7mb 37f
8:40pm 5 6 mph 1000.7mb 37f